Weather History for Madison, MN

Change the Weather History Date:

Tuesday, January 29, 2013

  Actual Average (KAQP) Record (KAQP)
Temperature  
Mean Temperature 24 °F -  
Max Temperature 30 °F 20 °F 35 °F (2014)
Min Temperature 19 °F 4 °F -23 °F (2004)
Degree Days  
Heating Degree Days 40    
Moisture  
Dew Point 22 °F    
Average Humidity 88    
Maximum Humidity 100    
Minimum Humidity 80    
Precipitation  
Precipitation 0.01 in - - ()
Sea Level Pressure  
Sea Level Pressure 29.73 in    
Wind  
Wind Speed 13 mph (NNW)    
Max Wind Speed 24 mph    
Max Gust Speed 30 mph    
Visibility 6 miles    
Events Snow    
Averages and records for this station are not official NWS values.
T = Trace of Precipitation, MM = Missing Value Source: NWS Daily Summary

Daily Weather History Graph

Daily Weather History Graph

Search for Another Location

Airport:

Trip Planner

Search our weather history database for the weather conditions in past years. The results will help you decide how hot, cold, wet, or windy it might be!

Date:

Astronomy

Jan. 29, 2013 Rise Set
Actual Time 7:47 AM CST 5:28 PM CST
Civil Twilight 7:16 AM CST 6:00 PM CST
Nautical Twilight 6:40 AM CST 6:35 PM CST
Astronomical Twilight 6:06 AM CST 7:10 PM CST
Moon 8:36 PM CST (1/29) 8:35 AM CST (1/29)
Length of Visible Light 10h 44m
Length of Day
9h 41m
Waning Gibbous, 93% of the Moon is Illuminated
Jan 29
Waning Gibbous
Feb 3
Last Quarter
Feb 10
New
Feb 17
First Quarter
Feb 25
Full

Hourly Weather History & Observations

Time (CST) Temp. Windchill Dew Point Humidity Pressure Visibility Wind Dir Wind Speed Gust Speed Precip Events Conditions
12:14 AM 30.2 °F 20.8 °F 30.2 °F 100% 29.63 in 4.0 mi NNW 11.5 mph - N/A   Clear
12:34 AM 30.2 °F 20.8 °F 28.4 °F 93% 29.63 in 2.0 mi NNW 11.5 mph - N/A   Mist
12:54 AM 30.2 °F 21.3 °F 28.4 °F 93% 29.63 in 2.0 mi NNW 10.4 mph - N/A   Mist
1:13 AM 28.4 °F 18.0 °F 28.4 °F 100% 29.63 in 2.0 mi NW 12.7 mph - N/A   Mist
1:34 AM 28.4 °F 17.5 °F 26.6 °F 93% 29.64 in 2.0 mi NW 13.8 mph - N/A   Mostly Cloudy
1:54 AM 26.6 °F 15.2 °F 24.8 °F 93% 29.63 in 1.5 mi NNW 13.8 mph - 0.01 in Snow Light Snow
2:14 AM 26.6 °F 16.2 °F 24.8 °F 93% 29.63 in 3.0 mi NW 11.5 mph - N/A Snow Light Snow
2:34 AM 26.6 °F 17.5 °F 24.8 °F 93% 29.63 in 5.0 mi NW 9.2 mph - N/A   Overcast
2:53 AM 26.6 °F 16.2 °F 24.8 °F 93% 29.63 in 4.0 mi NW 11.5 mph - N/A Snow Light Snow
3:14 AM 26.6 °F 16.8 °F 24.8 °F 93% 29.64 in 5.0 mi NW 10.4 mph - N/A   Overcast
3:34 AM 26.6 °F 17.5 °F 24.8 °F 93% 29.63 in 5.0 mi NW 9.2 mph - N/A   Mostly Cloudy
4:14 AM 26.6 °F 16.2 °F 24.8 °F 93% 29.63 in 5.0 mi NW 11.5 mph - N/A   Scattered Clouds
4:33 AM 26.6 °F 16.8 °F 23.0 °F 86% 29.61 in 5.0 mi NNW 10.4 mph - N/A   Scattered Clouds
5:14 AM 26.6 °F 17.5 °F 23.0 °F 86% 29.63 in 5.0 mi NW 9.2 mph - N/A   Clear
5:33 AM 26.6 °F 16.8 °F 23.0 °F 86% 29.63 in 5.0 mi NW 10.4 mph - N/A   Clear
5:54 AM 26.6 °F 16.8 °F 23.0 °F 86% 29.62 in 5.0 mi NNW 10.4 mph 16.1 mph N/A   Clear
6:14 AM 26.6 °F 16.8 °F 23.0 °F 86% 29.64 in 5.0 mi NW 10.4 mph - N/A   Scattered Clouds
6:33 AM 26.6 °F 16.8 °F 23.0 °F 86% 29.66 in 5.0 mi NW 10.4 mph - N/A   Mostly Cloudy
6:54 AM 26.6 °F 16.8 °F 24.8 °F 93% 29.66 in 5.0 mi NW 10.4 mph - N/A   Overcast
7:13 AM 26.6 °F 16.2 °F 24.8 °F 93% 29.67 in 7.0 mi NW 11.5 mph - N/A   Mostly Cloudy
7:34 AM 26.6 °F 15.7 °F 24.8 °F 93% 29.67 in 7.0 mi NNW 12.7 mph - N/A   Mostly Cloudy
7:54 AM 26.6 °F 18.2 °F 24.8 °F 93% 29.68 in 7.0 mi NW 8.1 mph - N/A   Overcast
8:13 AM 26.6 °F 15.7 °F 23.0 °F 86% 29.69 in 7.0 mi NW 12.7 mph - N/A   Overcast
8:34 AM 26.6 °F 15.2 °F 23.0 °F 86% 29.68 in 5.0 mi NNW 13.8 mph - N/A   Mostly Cloudy
8:54 AM 26.6 °F 15.2 °F 24.8 °F 93% 29.67 in 5.0 mi NNW 13.8 mph - N/A   Mostly Cloudy
9:13 AM 26.6 °F 15.2 °F 24.8 °F 93% 29.69 in 5.0 mi NW 13.8 mph - N/A   Mostly Cloudy
9:34 AM 26.6 °F 16.2 °F 23.0 °F 86% 29.70 in 5.0 mi NNW 11.5 mph - N/A   Scattered Clouds
9:54 AM 26.6 °F 16.2 °F 23.0 °F 86% 29.72 in 5.0 mi NNW 11.5 mph - N/A   Clear
10:13 AM 26.6 °F 15.7 °F 23.0 °F 86% 29.72 in 4.0 mi NNW 12.7 mph - N/A   Clear
10:34 AM 26.6 °F 15.2 °F 24.8 °F 93% 29.72 in 4.0 mi NNW 13.8 mph - N/A   Clear
10:54 AM 26.6 °F 16.8 °F 24.8 °F 93% 29.73 in 3.0 mi NNW 10.4 mph - N/A   Clear
11:13 AM 26.6 °F 16.2 °F 24.8 °F 93% 29.73 in 3.0 mi NNW 11.5 mph - N/A   Mist
11:34 AM 26.6 °F 14.7 °F 24.8 °F 93% 29.73 in 5.0 mi NNW 15.0 mph - N/A   Scattered Clouds
11:53 AM 26.6 °F 15.2 °F 23.0 °F 86% 29.73 in 5.0 mi NNW 13.8 mph - N/A   Scattered Clouds
12:14 PM 26.6 °F 14.3 °F 23.0 °F 86% 29.74 in 5.0 mi NNW 16.1 mph - N/A   Scattered Clouds
12:34 PM 24.8 °F 14.6 °F 21.2 °F 86% 29.73 in 5.0 mi North 10.4 mph - N/A   Clear
12:53 PM 24.8 °F 13.4 °F 21.2 °F 86% 29.73 in 5.0 mi North 12.7 mph - N/A   Clear
1:14 PM 24.8 °F 12.9 °F 21.2 °F 86% 29.72 in 5.0 mi NNW 13.8 mph - N/A   Clear
1:34 PM 24.8 °F 12.4 °F 21.2 °F 86% 29.72 in 7.0 mi NNW 15.0 mph - N/A   Clear
1:53 PM 23.0 °F 10.1 °F 21.2 °F 93% 29.73 in 7.0 mi NNW 15.0 mph - N/A   Clear
2:14 PM 23.0 °F 10.6 °F 21.2 °F 93% 29.73 in 7.0 mi NNW 13.8 mph 17.3 mph N/A   Scattered Clouds
2:34 PM 23.0 °F 11.1 °F 19.4 °F 86% 29.75 in 7.0 mi North 12.7 mph - N/A   Scattered Clouds
2:53 PM 23.0 °F 10.1 °F 21.2 °F 93% 29.76 in 7.0 mi NNW 15.0 mph - N/A   Mostly Cloudy
3:14 PM 23.0 °F 9.6 °F 19.4 °F 86% 29.76 in 10.0 mi NNW 16.1 mph 23.0 mph N/A   Mostly Cloudy
3:53 PM 23.0 °F 8.7 °F 19.4 °F 86% 29.76 in 7.0 mi North 18.4 mph 23.0 mph N/A   Mostly Cloudy
4:14 PM 23.0 °F 9.2 °F 19.4 °F 86% 29.77 in 10.0 mi NNW 17.3 mph - N/A   Mostly Cloudy
4:34 PM 23.0 °F 9.2 °F 19.4 °F 86% 29.77 in 7.0 mi NNW 17.3 mph - N/A   Mostly Cloudy
4:53 PM 23.0 °F 9.2 °F 19.4 °F 86% 29.77 in 7.0 mi NNW 17.3 mph - N/A   Overcast
5:14 PM 23.0 °F 6.9 °F 19.4 °F 86% 29.76 in 4.0 mi NNW 24.2 mph - N/A   Overcast
5:34 PM 23.0 °F 8.7 °F 19.4 °F 86% 29.79 in 7.0 mi North 18.4 mph 24.2 mph N/A   Overcast
5:53 PM 23.0 °F 8.7 °F 19.4 °F 86% 29.78 in 7.0 mi North 18.4 mph 24.2 mph N/A   Overcast
6:14 PM 23.0 °F 9.2 °F 19.4 °F 86% 29.80 in 7.0 mi North 17.3 mph 23.0 mph N/A   Overcast
6:34 PM 23.0 °F 7.2 °F 19.4 °F 86% 29.80 in 7.0 mi North 23.0 mph - N/A   Overcast
6:53 PM 23.0 °F 8.3 °F 19.4 °F 86% 29.82 in 7.0 mi North 19.6 mph 26.5 mph N/A   Overcast
7:14 PM 23.0 °F 6.9 °F 19.4 °F 86% 29.83 in 7.0 mi NNW 24.2 mph 27.6 mph N/A   Overcast
7:33 PM 23.0 °F 7.2 °F 19.4 °F 86% 29.82 in 10.0 mi NNW 23.0 mph 28.8 mph N/A   Overcast
7:54 PM 23.0 °F 8.3 °F 19.4 °F 86% 29.82 in 7.0 mi North 19.6 mph 29.9 mph N/A   Overcast
8:14 PM 23.0 °F 7.2 °F 17.6 °F 80% 29.83 in 10.0 mi North 23.0 mph 27.6 mph N/A   Overcast
8:33 PM 23.0 °F 7.6 °F 17.6 °F 80% 29.85 in 10.0 mi North 21.9 mph 28.8 mph N/A   Overcast
8:54 PM 23.0 °F 8.7 °F 17.6 °F 80% 29.85 in 10.0 mi North 18.4 mph 26.5 mph N/A   Overcast
9:14 PM 23.0 °F 8.7 °F 17.6 °F 80% 29.84 in 10.0 mi North 18.4 mph 26.5 mph N/A   Overcast
9:33 PM 23.0 °F 8.3 °F 17.6 °F 80% 29.86 in 10.0 mi North 19.6 mph 26.5 mph N/A   Overcast
9:54 PM 23.0 °F 9.2 °F 17.6 °F 80% 29.86 in 10.0 mi North 17.3 mph - N/A   Overcast
10:13 PM 21.2 °F 7.3 °F 15.8 °F 80% 29.86 in 10.0 mi NNW 16.1 mph - N/A   Scattered Clouds
10:34 PM 21.2 °F 6.0 °F 15.8 °F 80% 29.86 in 10.0 mi North 19.6 mph - N/A   Clear
10:54 PM 19.4 °F 5.5 °F 15.8 °F 86% 29.86 in 10.0 mi North 15.0 mph - N/A   Clear
11:13 PM 19.4 °F 2.8 °F 15.8 °F 86% 29.83 in 10.0 mi North 21.9 mph 26.5 mph N/A   Scattered Clouds
11:34 PM 19.4 °F 3.2 °F 15.8 °F 86% 29.84 in 10.0 mi North 20.7 mph 26.5 mph N/A   Overcast